Time,TemperatureF,DewpointF,PressureIn,WindDirection,WindDirectionDegrees,WindSpeedMPH,WindSpeedGustMPH,Humidity,HourlyPrecipIn,Conditions,Clouds,dailyrainin,SolarRadiationWatts/m^2,SoftwareType,DateUTC
2013-05-16 00:01:00,57.8,46.0,29.80,WNW,301,0.0,0.0,66,0.00,,,0.00,14,weatherlink.com 1.10,2013-05-16 04:01:00,
2013-05-16 00:17:00,57.0,46.0,29.80,WNW,301,0.0,0.0,67,0.00,,,0.00,12,weatherlink.com 1.10,2013-05-16 04:17:00,
2013-05-16 00:31:00,56.5,46.0,29.79,WNW,301,0.0,0.0,69,0.00,,,0.00,0,weatherlink.com 1.10,2013-05-16 04:31:00,
2013-05-16 00:46:00,55.9,46.0,29.80,WNW,301,0.0,0.0,70,0.00,,,0.00,0,weatherlink.com 1.10,2013-05-16 04:46:00,
2013-05-16 01:01:00,55.4,46.0,29.80,WNW,301,0.0,0.0,72,0.00,,,0.00,0,weatherlink.com 1.10,2013-05-16 05:01:00,
2013-05-16 01:16:00,54.7,46.0,29.80,WNW,301,0.0,0.0,73,0.00,,,0.00,0,weatherlink.com 1.10,2013-05-16 05:16:00,
2013-05-16 01:31:00,54.2,46.0,29.80,WNW,301,0.0,0.0,74,0.00,,,0.00,0,weatherlink.com 1.10,2013-05-16 05:31:00,
2013-05-16 01:46:00,53.8,46.0,29.80,WNW,301,0.0,0.0,75,0.00,,,0.00,0,weatherlink.com 1.10,2013-05-16 05:46:00,
2013-05-16 02:01:00,53.4,46.0,29.80,WNW,301,0.0,0.0,76,0.00,,,0.00,0,weatherlink.com 1.10,2013-05-16 06:01:00,
2013-05-16 02:16:00,53.0,46.0,29.80,WNW,301,0.0,0.0,77,0.00,,,0.00,0,weatherlink.com 1.10,2013-05-16 06:16:00,
2013-05-16 02:31:00,52.7,46.0,29.80,WNW,301,0.0,0.0,77,0.00,,,0.00,0,weatherlink.com 1.10,2013-05-16 06:31:00,
2013-05-16 02:46:00,52.2,45.0,29.80,WNW,301,0.0,0.0,77,0.00,,,0.00,0,weatherlink.com 1.10,2013-05-16 06:46:00,
2013-05-16 03:01:00,51.9,45.0,29.80,WNW,301,0.0,0.0,78,0.00,,,0.00,0,weatherlink.com 1.10,2013-05-16 07:01:00,
2013-05-16 03:16:00,51.5,45.0,29.80,WNW,301,0.0,0.0,79,0.00,,,0.00,0,weatherlink.com 1.10,2013-05-16 07:16:00,
2013-05-16 03:32:00,51.2,45.0,29.81,WNW,301,0.0,0.0,80,0.00,,,0.00,0,weatherlink.com 1.10,2013-05-16 07:32:00,
2013-05-16 03:47:00,50.9,45.0,29.81,WNW,301,0.0,0.0,80,0.00,,,0.00,0,weatherlink.com 1.10,2013-05-16 07:47:00,
2013-05-16 04:02:00,50.6,45.0,29.81,WNW,301,0.0,0.0,81,0.00,,,0.00,0,weatherlink.com 1.10,2013-05-16 08:02:00,
2013-05-16 04:17:00,50.2,45.0,29.82,WNW,301,0.0,0.0,81,0.00,,,0.00,0,weatherlink.com 1.10,2013-05-16 08:17:00,
2013-05-16 04:32:00,49.9,45.0,29.83,WNW,300,0.0,0.0,82,0.00,,,0.00,0,weatherlink.com 1.10,2013-05-16 08:32:00,
2013-05-16 04:47:00,49.6,44.0,29.84,WNW,301,0.0,0.0,82,0.00,,,0.00,0,weatherlink.com 1.10,2013-05-16 08:47:00,
2013-05-16 05:02:00,49.3,44.0,29.84,WNW,300,0.0,0.0,83,0.00,,,0.00,0,weatherlink.com 1.10,2013-05-16 09:02:00,
2013-05-16 05:17:00,49.1,45.0,29.84,WNW,301,0.0,0.0,84,0.00,,,0.00,0,weatherlink.com 1.10,2013-05-16 09:17:00,
2013-05-16 05:32:00,49.0,44.0,29.85,WNW,301,0.0,0.0,84,0.00,,,0.00,0,weatherlink.com 1.10,2013-05-16 09:32:00,
2013-05-16 05:47:00,48.8,45.0,29.84,WNW,301,0.0,0.0,85,0.00,,,0.00,0,weatherlink.com 1.10,2013-05-16 09:47:00,
2013-05-16 06:02:00,48.7,44.0,29.85,WNW,301,0.0,0.0,85,0.00,,,0.00,0,weatherlink.com 1.10,2013-05-16 10:02:00,
2013-05-16 06:17:00,48.4,44.0,29.85,WNW,301,0.0,0.0,85,0.00,,,0.00,0,weatherlink.com 1.10,2013-05-16 10:17:00,
2013-05-16 06:32:00,48.2,44.0,29.86,WNW,301,0.0,0.0,86,0.00,,,0.00,11,weatherlink.com 1.10,2013-05-16 10:32:00,
2013-05-16 06:47:00,48.2,44.0,29.85,WNW,301,0.0,0.0,86,0.00,,,0.00,16,weatherlink.com 1.10,2013-05-16 10:47:00,
2013-05-16 07:02:00,48.3,45.0,29.86,WNW,301,0.0,0.0,87,0.00,,,0.00,23,weatherlink.com 1.10,2013-05-16 11:02:00,
2013-05-16 07:17:00,48.7,45.0,29.86,WNW,301,0.0,1.0,87,0.00,,,0.00,40,weatherlink.com 1.10,2013-05-16 11:17:00,
2013-05-16 07:32:00,49.4,46.0,29.86,WNW,301,0.0,0.0,87,0.00,,,0.00,148,weatherlink.com 1.10,2013-05-16 11:32:00,
2013-05-16 07:47:00,50.7,47.0,29.86,WNW,301,0.0,0.0,87,0.00,,,0.00,200,weatherlink.com 1.10,2013-05-16 11:47:00,
2013-05-16 08:02:00,52.7,48.0,29.86,WNW,284,0.0,4.0,83,0.00,,,0.00,251,weatherlink.com 1.10,2013-05-16 12:02:00,
2013-05-16 08:17:00,55.2,48.0,29.87,WNW,290,0.0,4.0,76,0.00,,,0.00,297,weatherlink.com 1.10,2013-05-16 12:17:00,
2013-05-16 08:32:00,57.6,48.0,29.88,West,267,0.0,5.0,70,0.00,,,0.00,346,weatherlink.com 1.10,2013-05-16 12:32:00,
2013-05-16 08:47:00,59.6,48.0,29.88,WNW,302,3.0,6.0,65,0.00,,,0.00,396,weatherlink.com 1.10,2013-05-16 12:47:00,
2013-05-16 09:02:00,62.3,48.0,29.88,WNW,286,4.0,7.0,60,0.00,,,0.00,445,weatherlink.com 1.10,2013-05-16 13:02:00,
2013-05-16 09:18:00,63.4,48.0,29.89,WNW,290,0.0,7.0,58,0.00,,,0.00,489,weatherlink.com 1.10,2013-05-16 13:18:00,
2013-05-16 09:33:00,64.9,49.0,29.89,WNW,286,1.0,5.0,56,0.00,,,0.00,522,weatherlink.com 1.10,2013-05-16 13:33:00,
2013-05-16 09:48:00,65.5,49.0,29.89,WSW,247,2.0,6.0,55,0.00,,,0.00,568,weatherlink.com 1.10,2013-05-16 13:48:00,
2013-05-16 10:03:00,66.7,50.0,29.89,West,271,0.0,4.0,55,0.00,,,0.00,613,weatherlink.com 1.10,2013-05-16 14:03:00,
2013-05-16 10:18:00,67.1,51.0,29.89,West,260,0.0,4.0,56,0.00,,,0.00,657,weatherlink.com 1.10,2013-05-16 14:18:00,
2013-05-16 10:33:00,68.0,50.0,29.89,West,265,0.0,4.0,53,0.00,,,0.00,573,weatherlink.com 1.10,2013-05-16 14:33:00,
2013-05-16 10:48:00,69.8,51.0,29.89,West,265,2.0,4.0,52,0.00,,,0.00,744,weatherlink.com 1.10,2013-05-16 14:48:00,
2013-05-16 11:03:00,71.3,50.0,29.89,WNW,285,1.0,5.0,47,0.00,,,0.00,782,weatherlink.com 1.10,2013-05-16 15:03:00,
2013-05-16 11:18:00,72.2,50.0,29.89,WNW,302,2.0,4.0,45,0.00,,,0.00,805,weatherlink.com 1.10,2013-05-16 15:18:00,
2013-05-16 11:33:00,73.1,50.0,29.89,NNW,335,0.0,3.0,45,0.00,,,0.00,847,weatherlink.com 1.10,2013-05-16 15:33:00,
2013-05-16 11:48:00,75.1,50.0,29.90,WSW,249,0.0,3.0,42,0.00,,,0.00,847,weatherlink.com 1.10,2013-05-16 15:48:00,
2013-05-16 12:03:00,75.6,50.0,29.90,SE,144,4.0,4.0,40,0.00,,,0.00,800,weatherlink.com 1.10,2013-05-16 16:03:00,
2013-05-16 12:18:00,76.7,51.0,29.90,SSE,163,1.0,5.0,40,0.00,,,0.00,870,weatherlink.com 1.10,2013-05-16 16:18:00,
2013-05-16 12:33:00,77.5,49.0,29.89,South,187,2.0,4.0,37,0.00,,,0.00,888,weatherlink.com 1.10,2013-05-16 16:33:00,
2013-05-16 12:48:00,78.0,47.0,29.89,West,280,1.0,7.0,34,0.00,,,0.00,926,weatherlink.com 1.10,2013-05-16 16:48:00,
2013-05-16 13:03:00,77.9,48.0,29.89,West,259,3.0,6.0,35,0.00,,,0.00,926,weatherlink.com 1.10,2013-05-16 17:03:00,
2013-05-16 13:18:00,78.5,51.0,29.89,West,261,2.0,6.0,38,0.00,,,0.00,928,weatherlink.com 1.10,2013-05-16 17:18:00,
2013-05-16 13:33:00,79.4,49.0,29.88,West,273,0.0,5.0,35,0.00,,,0.00,939,weatherlink.com 1.10,2013-05-16 17:33:00,
2013-05-16 13:48:00,80.2,49.0,29.88,West,279,3.0,7.0,34,0.00,,,0.00,940,weatherlink.com 1.10,2013-05-16 17:48:00,
2013-05-16 14:03:00,80.6,49.0,29.88,West,278,4.0,11.0,33,0.00,,,0.00,933,weatherlink.com 1.10,2013-05-16 18:03:00,
2013-05-16 14:19:00,81.6,51.0,29.89,NNE,13,2.0,4.0,34,0.00,,,0.00,928,weatherlink.com 1.10,2013-05-16 18:19:00,
2013-05-16 14:34:00,80.5,51.0,29.88,NNE,22,2.0,7.0,36,0.00,,,0.00,912,weatherlink.com 1.10,2013-05-16 18:34:00,
2013-05-16 14:49:00,81.5,51.0,29.89,West,269,0.0,6.0,34,0.00,,,0.00,893,weatherlink.com 1.10,2013-05-16 18:49:00,
2013-05-16 15:04:00,81.2,50.0,29.88,West,262,3.0,5.0,34,0.00,,,0.00,879,weatherlink.com 1.10,2013-05-16 19:04:00,
2013-05-16 15:19:00,81.8,49.0,29.88,WSW,242,4.0,12.0,32,0.00,,,0.00,856,weatherlink.com 1.10,2013-05-16 19:19:00,
2013-05-16 15:34:00,82.2,50.0,29.88,WSW,238,0.0,14.0,33,0.00,,,0.00,830,weatherlink.com 1.10,2013-05-16 19:34:00,
2013-05-16 15:49:00,81.5,52.0,29.89,SW,225,7.0,11.0,36,0.00,,,0.00,802,weatherlink.com 1.10,2013-05-16 19:49:00,
2013-05-16 16:04:00,81.1,51.0,29.88,West,271,5.0,14.0,35,0.00,,,0.00,773,weatherlink.com 1.10,2013-05-16 20:04:00,
2013-05-16 16:19:00,80.2,49.0,29.89,WSW,256,7.0,11.0,34,0.00,,,0.00,744,weatherlink.com 1.10,2013-05-16 20:19:00,
2013-05-16 16:34:00,80.1,49.0,29.89,WNW,300,4.0,12.0,34,0.00,,,0.00,708,weatherlink.com 1.10,2013-05-16 20:34:00,
2013-05-16 16:49:00,80.0,49.0,29.88,West,267,5.0,11.0,34,0.00,,,0.00,673,weatherlink.com 1.10,2013-05-16 20:49:00,
2013-05-16 17:04:00,80.3,49.0,29.88,West,265,1.0,9.0,34,0.00,,,0.00,629,weatherlink.com 1.10,2013-05-16 21:04:00,
2013-05-16 17:19:00,80.4,50.0,29.88,NNW,339,4.0,8.0,35,0.00,,,0.00,591,weatherlink.com 1.10,2013-05-16 21:19:00,
2013-05-16 17:34:00,80.2,49.0,29.89,WSW,254,4.0,9.0,34,0.00,,,0.00,548,weatherlink.com 1.10,2013-05-16 21:34:00,
2013-05-16 17:49:00,80.5,49.0,29.89,West,279,2.0,8.0,33,0.00,,,0.00,519,weatherlink.com 1.10,2013-05-16 21:49:00,
2013-05-16 18:04:00,80.7,49.0,29.89,West,261,5.0,8.0,33,0.00,,,0.00,461,weatherlink.com 1.10,2013-05-16 22:04:00,
2013-05-16 18:19:00,80.6,49.0,29.89,WSW,250,6.0,7.0,33,0.00,,,0.00,424,weatherlink.com 1.10,2013-05-16 22:19:00,
2013-05-16 18:34:00,80.6,48.0,29.88,West,277,2.0,5.0,32,0.00,,,0.00,367,weatherlink.com 1.10,2013-05-16 22:34:00,
2013-05-16 18:49:00,80.5,49.0,29.88,West,265,0.0,7.0,33,0.00,,,0.00,336,weatherlink.com 1.10,2013-05-16 22:49:00,
2013-05-16 19:04:00,80.4,48.0,29.88,WNW,299,0.0,5.0,32,0.00,,,0.00,278,weatherlink.com 1.10,2013-05-16 23:04:00,
2013-05-16 19:19:00,80.1,48.0,29.89,NW,313,0.0,5.0,33,0.00,,,0.00,185,weatherlink.com 1.10,2013-05-16 23:19:00,
2013-05-16 19:34:00,79.1,48.0,29.90,West,265,0.0,8.0,33,0.00,,,0.00,188,weatherlink.com 1.10,2013-05-16 23:34:00,
2013-05-16 19:49:00,78.4,48.0,29.91,West,263,1.0,6.0,34,0.00,,,0.00,141,weatherlink.com 1.10,2013-05-16 23:49:00,
2013-05-16 20:04:00,77.8,47.0,29.91,West,271,4.0,4.0,34,0.00,,,0.00,58,weatherlink.com 1.10,2013-05-17 00:04:00,
2013-05-16 20:19:00,76.9,47.0,29.92,West,270,4.0,5.0,35,0.00,,,0.00,49,weatherlink.com 1.10,2013-05-17 00:19:00,
2013-05-16 20:34:00,75.8,48.0,29.92,West,274,0.0,4.0,37,0.00,,,0.00,37,weatherlink.com 1.10,2013-05-17 00:34:00,
2013-05-16 20:49:00,74.9,48.0,29.92,West,274,0.0,2.0,38,0.00,,,0.00,23,weatherlink.com 1.10,2013-05-17 00:49:00,
2013-05-16 21:04:00,73.9,47.0,29.93,West,274,0.0,2.0,39,0.00,,,0.00,18,weatherlink.com 1.10,2013-05-17 01:04:00,
2013-05-16 21:19:00,73.0,47.0,29.94,West,274,0.0,1.0,40,0.00,,,0.00,14,weatherlink.com 1.10,2013-05-17 01:19:00,
2013-05-16 21:34:00,72.1,48.0,29.94,West,274,0.0,0.0,42,0.00,,,0.00,16,weatherlink.com 1.10,2013-05-17 01:34:00,
2013-05-16 21:49:00,70.6,48.0,29.95,West,274,0.0,1.0,45,0.00,,,0.00,16,weatherlink.com 1.10,2013-05-17 01:49:00,
2013-05-16 22:04:00,69.1,47.0,29.96,West,274,0.0,0.0,46,0.00,,,0.00,0,weatherlink.com 1.10,2013-05-17 02:04:00,
2013-05-16 22:19:00,68.0,47.0,29.96,West,274,1.0,2.0,47,0.00,,,0.00,0,weatherlink.com 1.10,2013-05-17 02:19:00,
2013-05-16 22:34:00,67.8,46.0,29.97,West,274,0.0,2.0,46,0.00,,,0.00,0,weatherlink.com 1.10,2013-05-17 02:34:00,
2013-05-16 22:49:00,67.7,45.0,29.98,West,277,1.0,2.0,45,0.00,,,0.00,0,weatherlink.com 1.10,2013-05-17 02:49:00,
2013-05-16 23:04:00,68.1,43.0,29.98,East,88,0.0,8.0,41,0.00,,,0.00,0,weatherlink.com 1.10,2013-05-17 03:04:00,
2013-05-16 23:19:00,68.3,42.0,29.99,East,90,2.0,10.0,39,0.00,,,0.00,0,weatherlink.com 1.10,2013-05-17 03:19:00,
2013-05-16 23:34:00,68.0,42.0,29.99,ENE,73,1.0,7.0,39,0.00,,,0.00,0,weatherlink.com 1.10,2013-05-17 03:34:00,
2013-05-16 23:49:00,67.6,42.0,29.99,ESE,103,1.0,7.0,40,0.00,,,0.00,0,weatherlink.com 1.10,2013-05-17 03:49:00,